Portada
METAR-TAF:

METAR-TAF

Aeropuertos :

Angoon, Alaska, Estados Unidos

latitud: 57-30N, longitud: 134-35W, altitud: 0 m

Observación

El informe se hizo hace 50 minutos, a las 09:56 UTC
Viento calma
Temperatura 13°C
Humedad 94%
Presión 1012 hPa
Visibilidad: 14.5 km
Cielo cubierto a una altura de 2500 ft
lluvia ligera

METAR: PAGN 140956Z AUTO 00000KT 9SM -RA OVC025 13/12 A2989 RMK AO2 RAB56 SLP110 P0000 T01280117

Hora: 02:46 (10:46 UTC)


TAF: falta

Observaciones y pronósticos meteorológicos de más de 4000 aeropuertos (mensajes METAR y TAF).

Los puntos amarillos y rojos representan las estaciones disponibles.

Ponga el ratón en el punto deseado para ver el nombre de la estación.

Haga clic para ver las observaciones y los pronósticos meteorológicos.

Para cambiar el mapa : haga clic en los botones verdes con una cruz de color negro para hacer un zoom, en el botón verde con un guión para alejar o en las flechas verdes para mapas adyacentes.


METAR-TAF: